Wetbulb
47.83 47.88 48.00 47.80 48.08 48.31 48.51 48.61 48.87 48.95 49.08 49.03 49.33 49.52 49.76 49.90 50.35 46.87 42.30 45.87 42.38 37.45 37.15 39.26 39.24 35.73 35.34 34.75 31.45 32.71 33.06 33.43 32.17 30.04 30.61 33.74 34.47 36.56 35.91 37.45 36.21 34.93 30.63 31.57 31.89 30.27 28.81 41.68 40.58 39.83 41.59 45.47 42.18 43.01
47.65 47.71 47.74 47.93 47.92 48.17 48.35 48.58 48.65 48.80 48.96 49.02 49.06 49.33 49.63 49.81 50.03 49.17 39.72 44.57 46.12 40.35 36.88 40.83 41.27 42.72 41.12 40.20 36.53 35.51 33.93 33.41 36.31 33.34 32.01 34.00 30.69 32.18 30.93 29.06 38.03 33.39 37.22 34.99 35.45 36.56 42.08 41.75 41.52 42.95 43.32 42.74 43.23 41.34
47.88 47.85 47.75 47.73 47.83 48.03 48.06 48.40 48.44 48.57 48.79 49.09 49.43 49.15 49.20 49.50 49.57 48.33 41.32 41.14 42.29 39.42 37.88 36.66 36.40 41.08 43.80 43.30 44.11 36.04 36.75 37.69 36.65 38.96 35.26 34.29 29.81 33.26 27.24 28.30 31.34 34.67 36.80 33.06 34.58 41.05 37.82 38.30 45.21 44.34 45.13 45.48 46.94 47.37
47.62 47.73 47.69 47.58 47.55 47.72 47.93 48.12 48.10 48.54 48.84 49.04 49.17 49.22 49.44 49.87 49.66 49.06 43.35 42.86 42.95 39.45 32.84 31.47 40.38 37.61 42.67 43.65 43.20 42.78 40.60 40.64 39.51 38.36 35.45 33.07 31.73 36.79 31.55 31.95 31.32 34.72 36.14 33.21 33.36 35.52 39.77 42.17 41.25 41.55 43.34 46.67 46.42 46.14
47.15 47.25 47.31 47.50 47.40 47.41 47.56 47.61 47.84 48.38 48.63 48.87 49.14 49.04 49.08 49.45 49.19 47.26 44.73 43.87 45.25 38.55 32.00 32.72 36.65 39.34 41.08 41.03 40.77 41.84 41.12 39.93 38.51 35.76 34.32 32.16 35.62 34.76 34.73 33.88 31.72 35.36 33.19 31.17 30.38 37.09 38.72 39.14 41.39 42.82 43.12 44.55 46.09 46.94
47.10 47.25 47.16 47.26 47.35 47.15 47.20 47.52 47.81 48.21 48.37 48.35 48.42 48.51 48.79 48.98 48.50 42.81 36.44 41.15 44.96 44.01 35.67 30.00 35.24 34.94 37.43 38.89 39.42 39.41 39.84 39.11 38.63 36.47 34.58 36.19 38.25 35.64 30.77 29.18 34.77 37.54 39.60 40.33 37.76 41.25 41.13 41.27 42.61 44.47 42.87 42.56 45.25 45.79
46.94 47.01 47.07 47.04 47.19 47.61 47.72 47.43 47.36 48.02 48.14 48.03 48.11 48.26 48.23 47.99 42.95 40.15 36.35 40.19 45.94 45.16 36.42 30.86 30.36 33.85 36.87 37.19 36.41 36.73 39.63 39.20 38.29 36.05 34.45 34.47 35.01 36.25 32.14 28.32 34.48 37.43 39.69 40.40 41.09 40.43 38.41 40.57 40.83 44.48 44.11 43.50 44.14 44.36
46.79 46.99 46.99 47.04 47.13 47.18 47.19 47.02 47.44 47.82 47.89 47.92 48.07 47.99 47.69 47.52 45.17 41.07 43.48 46.71 46.73 41.82 38.39 30.12 26.67 28.05 35.75 31.51 30.59 34.76 31.86 34.36 35.40 34.84 33.31 33.03 34.36 34.73 29.13 33.40 35.34 37.01 38.33 38.89 39.72 40.62 40.26 41.52 42.39 42.22 42.92 42.90 42.23 43.55
46.71 46.78 46.95 46.81 47.08 47.06 47.14 47.32 47.47 47.85 47.78 47.68 47.33 46.14 41.56 40.65 38.86 39.40 46.86 46.98 45.57 38.71 31.66 29.19 26.18 26.18 36.35 33.81 34.28 34.38 35.22 30.25 34.79 30.39 32.19 33.73 30.80 27.87 31.24 33.45 34.93 36.70 36.51 37.34 39.76 40.41 40.69 40.01 40.10 41.06 41.49 41.57 41.86 44.50
46.83 46.80 46.99 47.23 47.33 47.12 47.08 47.26 47.66 48.05 47.53 46.54 40.86 34.90 32.80 34.12 44.11 44.63 41.39 35.81 36.17 34.49 34.31 29.62 29.86 25.12 33.12 31.59 30.35 31.16 33.92 31.89 27.14 29.11 35.17 31.21 29.00 34.34 35.84 36.78 37.36 37.80 38.41 39.37 37.41 37.08 38.71 38.99 39.70 40.26 40.79 42.99 44.15 44.45
46.80 46.74 47.08 47.38 47.23 47.18 46.98 47.15 47.56 47.36 45.19 37.67 32.42 30.07 34.69 42.53 37.47 33.31 31.03 30.41 30.35 28.97 31.40 32.50 31.68 28.27 32.29 27.52 25.02 29.85 21.84 22.04 22.85 23.81 27.07 22.78 24.41 32.84 37.06 37.28 38.40 39.15 39.49 39.18 39.40 39.68 40.14 40.55 40.34 40.79 42.22 43.84 44.17 44.59
47.04 46.76 47.21 47.14 46.90 47.27 47.13 47.38 46.91 42.89 38.40 37.41 35.70 38.89 38.53 33.85 32.19 28.24 26.91 25.04 26.72 20.38 24.75 28.24 29.97 30.79 29.60 31.74 27.39 24.71 23.16 24.56 20.24 26.46 22.56 16.55 28.50 34.74 35.76 36.62 37.76 38.29 38.75 39.25 40.27 39.78 40.24 40.49 41.21 41.64 42.22 42.80 43.44 44.27
46.94 46.70 47.03 46.57 46.57 46.51 46.82 46.83 46.50 45.05 43.16 40.11 35.54 32.64 31.71 29.77 24.48 22.62 10.47 21.53 21.09 26.20 29.31 30.99 29.07 30.35 29.10 30.12 28.83 28.37 26.35 22.70 26.81 24.39 23.09 25.44 33.31 35.37 35.07 36.59 36.28 37.71 39.45 40.12 40.38 41.20 41.46 41.21 41.78 41.67 41.49 42.72 43.42 43.65
46.54 46.78 46.64 46.58 46.88 46.90 46.69 46.51 46.27 43.85 39.38 32.27 29.56 24.39 25.14 18.95 19.00 18.18 19.05 22.71 27.88 28.82 29.92 31.51 27.32 30.44 34.08 31.18 28.51 27.65 26.51 22.60 23.99 21.99 23.31 30.42 33.51 33.73 34.84 36.15 36.28 36.46 37.85 38.15 39.09 38.95 38.60 38.97 40.17 41.89 42.55 43.25 43.25 43.16
46.30 46.17 46.32 46.20 46.68 46.96 46.75 45.97 45.83 41.00 36.11 30.78 28.44 14.34 20.00 22.75 20.22 22.77 25.14 26.69 29.77 31.84 31.72 28.76 29.23 28.20 25.09 25.72 29.85 29.95 25.56 22.97 21.48 24.44 28.81 32.84 33.13 33.48 33.57 34.24 33.99 34.41 34.80 35.38 36.93 38.03 38.86 39.82 39.40 39.41 40.46 40.68 42.14 42.79
45.92 45.60 43.31 46.34 46.62 46.22 46.18 45.00 41.47 36.54 32.51 31.26 28.88 21.37 20.59 21.66 24.07 22.29 22.33 25.35 31.83 32.46 31.82 29.31 23.11 26.64 22.65 24.99 23.81 23.82 25.42 23.84 26.96 30.37 33.32 32.93 33.42 33.36 32.72 32.70 32.45 33.49 33.12 32.98 33.95 35.38 36.53 36.89 37.57 38.35 39.75 38.99 38.11 39.49
45.47 38.65 45.46 46.50 46.64 46.43 45.53 37.35 35.14 33.16 31.43 28.94 24.18 23.68 21.76 21.41 28.18 28.17 27.62 27.15 32.88 29.66 19.97 22.84 19.92 18.03 16.67 23.31 22.71 25.35 25.17 28.51 32.97 34.13 35.05 33.36 30.62 31.38 32.71 33.01 33.03 32.77 32.80 32.51 32.27 33.22 33.42 35.63 34.36 33.09 31.51 32.15 33.08 34.09
39.34 42.01 46.27 46.36 45.13 41.90 35.85 33.54 32.66 31.82 27.89 25.50 26.81 24.74 23.37 26.21 26.22 23.74 29.00 30.72 29.99 23.31 21.04 21.27 24.85 19.03 19.05 17.49 21.78 26.56 29.60 33.06 34.00 34.64 33.16 32.81 32.86 32.85 33.16 32.43 32.94 32.58 32.08 32.66 32.06 32.64 32.79 33.16 32.45 32.32 32.72 33.08 33.37 33.65
41.16 41.40 45.65 45.51 41.14 36.52 32.78 32.46 32.98 28.13 26.87 28.11 28.42 22.03 24.16 24.75 28.28 31.30 31.33 31.74 32.55 29.75 29.67 32.01 27.99 25.40 23.98 27.01 29.26 30.83 31.47 32.74 31.97 32.60 32.75 32.76 32.62 31.34 30.73 30.81 30.54 30.41 30.69 31.01 31.12 30.53 30.89 31.09 31.51 32.16 31.82 31.92 31.20 32.25
45.55 45.46 45.15 44.58 41.82 33.17 31.34 31.07 32.15 30.06 27.16 28.02 31.29 28.59 26.67 26.17 27.86 31.76 28.68 30.59 32.93 32.02 29.48 28.36 27.37 25.64 26.31 27.83 30.70 31.54 32.03 33.02 32.83 31.48 29.49 29.63 30.50 29.83 29.34 29.16 28.63 29.41 29.24 29.40 29.78 31.50 29.20 29.19 30.65 31.32 31.60 31.37 29.89 29.44
43.31 42.81 44.99 38.95 35.39 32.69 28.89 29.47 28.20 29.64 29.48 29.18 30.65 31.05 30.32 31.98 30.87 30.75 30.93 32.62 29.60 26.11 23.68 24.49 24.09 27.67 30.41 32.91 34.64 34.44 33.69 33.51 31.32 30.16 28.89 27.30 29.04 28.65 27.95 28.65 28.95 27.39 26.79 26.64 26.17 27.04 28.45 26.91 28.12 28.87 30.06 29.62 29.42 29.09
34.90 40.10 33.91 34.87 31.61 30.16 27.15 30.26 28.45 31.53 30.24 31.06 30.83 31.17 29.76 29.83 29.40 29.04 29.72 26.33 24.95 25.52 26.48 25.80 26.58 27.55 30.86 31.09 32.19 32.68 32.51 30.94 30.28 29.50 29.06 28.30 25.35 25.21 25.07 26.00 25.95 24.93 25.28 25.89 26.07 26.12 26.35 28.12 27.70 28.06 27.86 27.34 29.77 29.42
38.39 36.00 32.71 32.51 26.78 24.25 25.90 29.59 24.32 27.30 22.86 26.33 29.05 28.10 27.60 28.24 29.31 30.56 24.45 24.95 24.00 26.31 26.45 26.42 27.63 31.07 30.10 31.62 30.72 30.09 30.71 29.43 27.28 26.92 26.61 25.75 25.39 25.37 25.04 25.01 25.50 24.51 23.96 24.67 26.37 26.12 25.37 28.28 27.56 26.01 26.40 26.20 26.20 26.01
35.22 29.34 26.35 23.51 23.66 23.78 24.78 24.59 24.86 24.24 24.94 23.31 25.56 23.32 25.11 27.18 28.81 24.97 21.79 22.57 24.18 25.52 23.39 24.73 28.05 28.53 28.81 27.78 25.88 26.60 28.68 29.02 26.72 26.14 26.06 24.31 22.64 22.42 23.25 23.01 23.87 24.30 24.88 25.29 25.02 24.64 24.94 25.48 27.05 25.48 25.52 25.07 24.95 24.73
28.85 22.21 24.51 20.37 19.70 20.91 19.37 20.25 20.68 22.22 19.04 21.46 23.37 23.09 21.06 25.78 20.33 18.94 19.78 20.07 22.03 22.13 22.59 24.79 24.46 24.57 24.14 24.41 25.33 25.58 27.22 26.80 24.16 22.25 23.38 24.38 23.07 22.57 22.89 23.35 23.50 23.62 24.83 23.76 23.27 23.25 22.90 23.18 22.81 23.59 24.31 23.60 23.26 23.63
19.82 17.63 18.08 17.10 15.90 16.70 17.99 16.13 16.82 17.74 19.50 22.18 23.08 23.87 19.35 14.74 10.47 13.62 18.26 18.73 20.31 20.43 20.94 21.53 22.53 22.19 21.71 22.93 22.92 22.95 23.56 26.31 24.75 21.82 21.39 22.64 22.58 21.62 21.55 21.26 21.21 22.16 24.83 24.20 23.40 22.71 22.46 22.71 22.15 21.72 21.02 21.67 24.98 22.20
11.41 16.97 14.80 18.29 19.95 19.77 20.27 22.63 23.19 19.67 18.21 20.55 22.15 10.92 7.59 1.87 9.80 17.21 20.98 21.66 21.16 21.15 21.38 22.19 23.83 23.22 22.35 22.60 23.83 24.45 24.37 23.88 22.63 21.77 22.40 21.99 21.93 21.74 21.69 21.84 21.53 22.96 24.97 24.41 23.58 22.71 21.57 21.24 21.09 21.02 20.79 21.06 21.07 21.18
12.91 13.74 14.59 17.31 18.59 20.46 20.10 15.13 17.60 18.89 20.38 21.16 15.59 3.82 3.63 9.51 14.15 19.15 20.93 23.74 24.23 24.17 23.18 22.95 23.61 23.91 23.64 24.04 25.03 24.72 24.11 24.10 24.00 23.77 23.50 22.97 22.51 22.11 21.47 21.73 23.71 26.69 24.14 24.83 23.69 22.88 21.65 20.66 20.07 20.22 20.28 19.68 19.70 21.07
11.89 15.13 15.93 9.50 11.27 12.03 15.44 15.11 15.37 18.67 19.14 17.60 12.70 9.97 13.24 18.26 20.29 19.31 22.22 23.51 24.29 23.76 21.77 21.22 22.04 22.73 23.05 23.70 24.60 24.96 24.82 24.88 22.66 19.67 18.27 17.88 18.54 19.50 21.63 21.12 20.13 19.21 18.99 20.90 27.00 25.88 23.82 22.05 20.55 20.03 20.15 20.00 20.08 20.26
11.73 9.67 7.51 4.72 9.72 9.87 13.83 17.37 17.73 18.94 15.80 14.80 16.68 18.62 18.10 17.95 20.93 22.71 21.32 21.09 20.87 20.62 22.30 22.69 22.79 21.50 20.87 20.37 20.45 21.67 23.36 23.61 22.81 21.31 18.82 17.86 18.54 20.28 19.62 19.67 19.07 18.05 18.67 19.04 19.03 19.93 24.15 20.90 20.95 19.21 19.02 18.55 18.51 17.78
9.24 12.36 7.60 7.95 9.05 15.32 15.58 16.58 18.72 17.20 12.55 12.38 15.71 14.31 14.82 15.47 19.58 22.52 21.12 21.33 22.16 22.03 21.71 20.89 21.28 22.40 21.80 21.28 20.85 20.24 19.96 22.59 23.20 22.83 22.17 21.11 20.27 19.67 19.37 18.56 18.59 18.55 18.64 18.57 18.34 18.19 18.19 18.02 17.49 16.84 16.42 16.06 16.37 16.67
13.00 11.92 11.97 6.64 12.40 15.71 20.43 17.37 15.04 16.12 17.00 14.25 12.35 11.81 14.84 12.91 9.67 16.46 20.64 21.82 19.63 19.22 22.13 20.51 19.10 19.19 21.08 21.74 22.24 22.96 24.54 20.49 21.80 22.33 21.63 20.19 20.30 19.95 19.04 18.30 18.34 18.58 18.26 17.75 17.69 17.34 16.89 16.44 16.13 15.76 15.33 14.93 14.81 14.56
11.08 15.50 16.40 14.50 13.17 16.94 16.17 14.06 10.17 8.40 10.19 8.30 9.87 11.21 12.16 14.30 10.12 16.84 21.19 21.99 20.56 19.25 19.29 19.15 19.08 19.83 20.14 20.88 20.49 20.73 21.70 20.69 24.89 27.33 27.31 26.40 25.66 23.12 18.28 16.17 17.63 17.72 16.26 15.89 16.07 16.05 15.50 14.91 14.99 15.16 14.89 14.56 14.41 14.17
MSLP
1022.19 1022.18 1022.19 1022.16 1022.10 1022.10 1022.10 1022.05 1022.00 1021.88 1021.93 1021.89 1022.01 1022.11 1022.18 1022.38 1022.61 1023.33 1023.48 1023.65 1023.84 1023.85 1023.47 1023.45 1023.26 1023.15 1023.15 1023.28 1023.39 1023.21 1023.30 1022.31 1022.32 1022.23 1021.69 1020.14 1018.43 1017.56 1016.59 1014.98 1014.14 1013.84 1013.79 1013.05 1012.71 1011.97 1009.14 1007.03 1006.88 1006.46 1005.71 1004.90 1004.46 1004.40
1021.42 1021.42 1021.40 1021.38 1021.34 1021.45 1021.37 1021.37 1021.35 1021.25 1021.23 1021.17 1021.25 1021.30 1021.35 1021.50 1021.77 1022.24 1023.07 1022.88 1023.15 1023.47 1023.04 1022.45 1021.85 1021.38 1021.51 1021.80 1022.47 1022.53 1022.38 1022.03 1021.49 1021.54 1021.37 1020.65 1019.63 1019.17 1017.90 1016.49 1014.22 1014.16 1013.51 1012.59 1011.26 1009.03 1008.02 1007.31 1006.36 1005.64 1005.53 1005.47 1004.53 1004.35
1020.63 1020.62 1020.61 1020.61 1020.62 1020.57 1020.64 1020.68 1020.56 1020.53 1020.41 1020.45 1020.46 1020.52 1020.59 1020.66 1020.85 1021.38 1022.01 1022.45 1022.95 1022.82 1022.34 1022.25 1020.55 1020.32 1020.45 1020.23 1021.05 1021.99 1021.35 1021.09 1020.80 1020.50 1020.77 1020.57 1020.14 1019.30 1018.02 1016.91 1016.19 1015.01 1015.09 1014.13 1012.52 1009.04 1009.78 1009.19 1008.13 1007.22 1005.98 1005.54 1004.45 1003.70
1019.76 1019.81 1019.81 1019.79 1019.79 1019.78 1019.79 1019.79 1019.71 1019.73 1019.64 1019.60 1019.57 1019.66 1019.72 1019.75 1019.85 1020.27 1021.05 1021.47 1021.79 1022.04 1021.64 1019.82 1019.26 1019.18 1018.85 1019.46 1019.77 1020.09 1019.79 1020.30 1020.35 1020.61 1020.41 1019.86 1019.19 1018.51 1017.55 1016.58 1015.91 1015.21 1014.35 1013.75 1012.79 1011.52 1010.48 1008.89 1008.05 1008.00 1007.28 1006.59 1006.15 1004.98
1018.84 1018.86 1018.87 1018.86 1018.89 1018.90 1018.94 1018.98 1018.97 1019.05 1018.98 1018.85 1018.76 1018.87 1018.91 1018.93 1019.13 1019.45 1019.86 1020.11 1020.31 1021.17 1020.60 1019.98 1019.20 1018.50 1018.46 1018.68 1018.79 1019.16 1019.48 1019.30 1019.47 1019.59 1019.21 1018.66 1018.50 1018.45 1017.07 1016.31 1014.83 1014.40 1013.48 1013.08 1011.63 1010.93 1010.64 1009.53 1008.59 1007.75 1007.37 1006.68 1005.80 1005.29
1017.70 1017.74 1017.80 1017.85 1017.90 1017.99 1018.09 1018.17 1018.23 1018.32 1018.22 1018.22 1018.32 1018.37 1018.47 1018.52 1018.60 1019.26 1019.49 1019.27 1019.13 1019.67 1020.29 1019.87 1017.65 1016.88 1017.12 1017.51 1017.91 1018.19 1018.11 1018.27 1018.67 1018.17 1017.64 1017.15 1016.62 1017.02 1015.62 1014.13 1013.46 1012.71 1012.32 1011.69 1010.36 1009.53 1009.12 1008.63 1007.98 1007.49 1006.31 1005.96 1005.23 1004.58
1016.41 1016.52 1016.60 1016.75 1016.88 1016.96 1017.15 1017.32 1017.44 1017.55 1017.68 1017.83 1017.91 1017.99 1018.03 1018.00 1018.41 1018.73 1018.77 1018.53 1018.30 1019.09 1019.71 1019.51 1018.31 1016.49 1016.05 1016.24 1016.45 1016.63 1016.93 1017.06 1017.38 1017.20 1016.26 1015.90 1015.28 1015.62 1013.98 1012.59 1012.10 1011.48 1010.81 1009.65 1008.79 1008.55 1008.04 1007.39 1006.01 1005.27 1004.80 1004.56 1004.16 1003.70
1015.09 1015.16 1015.33 1015.55 1015.80 1015.99 1016.26 1016.51 1016.70 1016.86 1017.04 1017.21 1017.32 1017.44 1017.43 1017.39 1017.82 1018.11 1017.82 1017.96 1018.20 1018.46 1018.52 1018.49 1017.82 1017.12 1015.88 1015.98 1016.06 1015.73 1016.24 1016.65 1016.32 1015.66 1015.23 1014.72 1014.37 1014.15 1012.74 1010.79 1008.73 1008.01 1007.76 1007.71 1007.50 1006.43 1006.05 1005.29 1005.14 1004.54 1004.27 1003.94 1003.47 1002.77
1013.71 1013.77 1013.98 1014.28 1014.67 1014.97 1015.33 1015.68 1015.95 1016.09 1016.29 1016.56 1016.80 1017.06 1017.59 1017.68 1017.78 1017.02 1016.55 1017.03 1017.82 1018.73 1018.08 1017.47 1017.21 1016.47 1015.43 1015.35 1015.46 1015.81 1015.81 1016.20 1015.22 1014.80 1014.06 1014.21 1012.68 1011.34 1007.61 1007.13 1006.65 1006.09 1006.07 1005.74 1005.39 1004.89 1004.88 1004.76 1003.58 1002.94 1003.09 1002.84 1002.34 1001.40
1012.06 1012.27 1012.61 1013.02 1013.49 1013.96 1014.37 1014.86 1015.11 1015.35 1015.68 1016.14 1016.97 1017.43 1017.91 1017.27 1016.76 1016.86 1017.19 1017.54 1017.71 1017.43 1017.61 1017.04 1016.45 1015.93 1015.36 1015.29 1015.17 1015.63 1015.38 1015.10 1014.49 1013.12 1012.36 1011.52 1009.55 1007.89 1006.60 1005.31 1004.47 1004.12 1004.28 1004.17 1004.23 1003.35 1002.66 1002.16 1002.13 1001.81 1001.42 1001.43 1001.19 1000.72
1010.30 1010.68 1011.21 1011.80 1012.44 1013.07 1013.54 1014.00 1014.29 1014.68 1015.37 1016.32 1017.07 1017.34 1017.06 1016.76 1017.00 1017.35 1017.50 1017.45 1017.27 1017.19 1016.70 1015.84 1015.75 1015.31 1014.78 1014.88 1015.00 1015.25 1014.95 1014.67 1014.10 1012.07 1011.41 1009.95 1008.43 1005.73 1003.38 1004.02 1003.16 1002.91 1003.03 1002.79 1002.69 1001.95 1001.31 1000.91 1000.38 1000.28 999.57 999.34 999.23 999.04
1008.59 1009.23 1009.93 1010.73 1011.53 1012.19 1012.80 1013.28 1013.74 1014.52 1015.07 1015.46 1016.16 1016.74 1017.13 1017.23 1017.36 1017.62 1017.46 1017.49 1017.12 1016.45 1015.53 1015.07 1014.61 1014.84 1014.44 1014.07 1014.46 1014.36 1014.48 1014.43 1012.98 1011.37 1010.82 1008.57 1005.95 1003.18 1003.50 1002.58 1001.63 1001.78 1001.71 1001.18 1000.47 999.92 999.34 999.05 998.66 998.43 998.45 998.20 997.78 997.57
1007.39 1008.22 1009.06 1009.98 1010.80 1011.53 1012.15 1012.68 1013.25 1013.91 1014.83 1015.82 1016.46 1017.10 1017.24 1017.49 1017.63 1017.35 1016.99 1016.53 1016.13 1014.86 1014.13 1014.07 1014.10 1013.97 1014.02 1013.90 1013.88 1013.63 1013.44 1012.67 1011.57 1011.01 1009.22 1006.15 1003.84 1003.19 1002.80 1002.56 1002.44 1002.26 1001.78 1001.06 1000.10 999.00 997.91 997.39 996.73 996.86 996.75 996.55 996.55 996.36
1007.14 1007.87 1008.68 1009.49 1010.22 1010.94 1011.47 1012.08 1012.65 1013.82 1014.85 1016.03 1016.58 1016.72 1016.82 1016.73 1016.12 1015.28 1014.74 1014.06 1013.73 1013.56 1013.46 1013.56 1013.67 1013.60 1013.36 1013.41 1012.59 1011.62 1011.08 1011.01 1010.32 1009.11 1006.80 1005.15 1004.70 1004.51 1004.02 1003.55 1003.02 1002.38 1002.01 1001.34 1000.57 999.62 998.71 997.89 996.68 995.66 995.56 995.34 995.27 995.27
1007.16 1007.80 1008.49 1009.20 1009.83 1010.49 1011.00 1011.63 1012.35 1013.51 1014.92 1015.61 1016.05 1016.26 1015.83 1015.10 1014.73 1014.25 1013.99 1013.92 1013.23 1013.00 1013.12 1013.38 1013.46 1013.35 1013.19 1012.81 1011.59 1010.52 1009.99 1009.25 1008.62 1007.58 1006.02 1005.51 1005.23 1005.01 1004.47 1004.01 1003.64 1002.80 1002.01 1001.30 1000.48 999.51 998.49 997.75 996.97 995.79 995.32 995.09 994.57 993.95
1007.12 1007.80 1008.38 1008.88 1009.44 1010.03 1010.75 1011.49 1012.80 1013.74 1014.68 1015.22 1015.23 1015.03 1014.80 1015.07 1014.50 1014.15 1013.87 1013.42 1012.76 1012.79 1012.82 1013.03 1013.25 1013.42 1012.82 1011.99 1011.16 1009.91 1009.13 1007.81 1006.96 1006.37 1005.90 1005.54 1005.40 1005.16 1004.90 1004.28 1003.68 1003.16 1002.50 1001.48 1000.55 999.63 998.67 997.77 996.94 995.96 995.25 995.09 994.90 994.36
1007.08 1007.67 1007.74 1008.40 1009.13 1009.88 1010.61 1012.03 1012.99 1013.71 1014.22 1014.15 1013.77 1013.43 1013.59 1013.67 1013.14 1012.77 1012.53 1012.38 1011.97 1012.74 1013.38 1013.52 1013.82 1013.25 1012.03 1011.47 1010.42 1008.82 1008.03 1007.46 1007.05 1006.55 1006.34 1006.41 1006.23 1005.74 1005.15 1004.50 1003.99 1003.46 1002.71 1001.78 1000.76 1000.05 999.28 998.23 997.61 997.00 996.53 996.47 995.93 995.24
1006.96 1007.12 1007.43 1007.98 1008.87 1009.98 1011.39 1012.01 1012.75 1013.10 1012.99 1012.86 1013.08 1012.79 1012.72 1012.42 1012.19 1011.85 1011.57 1011.40 1011.76 1012.16 1012.93 1012.71 1012.22 1012.25 1011.50 1010.20 1009.04 1008.14 1007.62 1007.49 1007.34 1007.14 1007.13 1006.96 1006.73 1006.29 1005.65 1004.95 1004.40 1003.74 1003.03 1002.34 1001.62 1000.77 999.99 999.15 998.60 998.11 997.49 997.02 996.50 996.03
1006.33 1006.77 1007.07 1007.74 1008.63 1010.16 1011.34 1011.99 1012.11 1012.03 1011.88 1011.88 1011.94 1011.84 1011.81 1011.29 1010.85 1010.74 1010.71 1010.77 1010.88 1011.15 1011.77 1011.55 1011.52 1010.82 1010.09 1009.10 1008.70 1008.49 1008.35 1008.07 1007.78 1007.75 1007.79 1007.63 1007.40 1006.97 1006.41 1005.70 1004.99 1004.36 1003.70 1003.04 1002.26 1001.70 1001.22 1000.66 1000.08 999.47 998.80 998.10 997.75 997.44
1005.99 1006.44 1006.87 1007.74 1008.32 1010.00 1010.95 1011.30 1011.41 1011.27 1011.24 1010.77 1010.65 1010.88 1010.76 1010.44 1010.23 1010.33 1010.55 1010.75 1010.98 1011.32 1011.17 1010.78 1010.45 1010.31 1009.99 1009.42 1009.05 1008.59 1008.22 1008.03 1007.90 1007.92 1008.16 1008.32 1008.11 1007.65 1007.20 1006.70 1006.13 1005.50 1004.81 1004.20 1003.47 1002.87 1002.38 1001.77 1001.17 1000.69 1000.14 999.62 999.21 999.20
1006.15 1006.49 1006.86 1007.77 1008.92 1009.54 1010.07 1010.46 1010.71 1010.54 1010.26 1010.20 1009.86 1010.01 1010.07 1009.96 1010.12 1010.09 1010.14 1010.46 1010.72 1010.74 1010.79 1010.72 1010.54 1010.22 1009.92 1009.22 1008.79 1008.53 1008.30 1008.18 1008.11 1008.34 1008.74 1009.04 1008.89 1008.51 1008.04 1007.65 1007.25 1006.71 1006.11 1005.65 1004.98 1004.61 1004.05 1003.76 1003.27 1002.64 1001.94 1001.47 1001.14 1001.17
1006.58 1006.89 1007.58 1008.26 1008.96 1009.63 1010.00 1010.06 1010.06 1009.95 1010.08 1009.66 1009.62 1009.53 1009.44 1009.40 1009.46 1009.76 1010.15 1010.56 1010.96 1011.25 1011.32 1011.18 1010.74 1010.27 1009.60 1009.32 1009.08 1008.96 1008.93 1008.90 1009.04 1009.30 1009.64 1009.69 1009.60 1009.32 1009.05 1008.79 1008.19 1007.82 1007.41 1007.06 1006.60 1006.22 1005.84 1005.39 1005.00 1004.39 1003.94 1003.79 1003.24 1003.07
1006.63 1007.12 1007.68 1008.28 1008.97 1009.45 1010.26 1010.06 1010.10 1009.92 1009.85 1009.53 1009.33 1009.07 1008.92 1009.02 1009.47 1009.98 1010.64 1011.31 1011.77 1011.99 1011.87 1011.42 1010.80 1010.30 1010.06 1009.93 1009.78 1009.73 1009.74 1009.73 1009.93 1010.23 1010.45 1010.53 1010.51 1010.30 1009.97 1009.64 1009.22 1008.76 1008.30 1008.04 1007.78 1007.44 1007.11 1006.83 1006.43 1006.01 1005.85 1005.62 1005.35 1005.26
1006.98 1007.84 1008.54 1009.04 1009.45 1010.13 1010.29 1010.23 1010.07 1010.07 1009.75 1009.71 1009.55 1009.51 1009.50 1009.50 1009.84 1010.32 1011.08 1011.76 1012.19 1012.16 1011.96 1011.45 1010.78 1010.68 1010.71 1010.70 1010.72 1010.73 1010.75 1010.78 1010.90 1011.04 1011.12 1011.12 1011.13 1011.07 1010.86 1010.67 1010.27 1009.84 1009.47 1009.11 1008.67 1008.41 1008.19 1007.87 1007.62 1007.34 1007.09 1006.84 1006.97 1007.04
1008.03 1009.74 1009.80 1010.01 1010.12 1010.40 1010.41 1010.39 1010.25 1010.14 1010.03 1009.93 1009.90 1010.06 1010.32 1010.32 1010.93 1011.51 1011.95 1012.51 1012.60 1012.64 1012.45 1012.01 1011.72 1011.55 1011.62 1011.75 1011.78 1011.81 1011.83 1011.80 1011.86 1011.99 1012.11 1011.87 1011.86 1011.67 1011.53 1011.40 1011.19 1010.92 1010.46 1009.94 1009.69 1009.49 1009.41 1009.28 1009.11 1008.77 1008.49 1008.43 1008.36 1008.40
1009.17 1010.44 1010.65 1010.52 1010.55 1010.51 1010.39 1010.42 1010.38 1010.39 1010.30 1010.41 1010.50 1010.76 1011.10 1011.74 1012.33 1012.63 1012.84 1013.13 1013.18 1013.29 1013.20 1012.92 1012.63 1012.51 1012.57 1012.60 1012.58 1012.66 1012.88 1012.81 1012.64 1012.85 1013.31 1013.09 1012.85 1012.55 1012.41 1012.23 1012.03 1011.89 1011.56 1011.25 1010.95 1010.63 1010.47 1010.34 1010.21 1010.09 1010.03 1009.94 1009.74 1009.79
1010.59 1011.10 1011.05 1010.68 1010.51 1010.32 1010.32 1010.17 1010.30 1010.47 1010.70 1010.90 1011.22 1011.90 1012.63 1013.42 1013.44 1013.46 1013.48 1013.58 1013.68 1013.74 1013.66 1013.33 1013.11 1013.09 1013.13 1013.16 1013.35 1013.47 1013.51 1013.48 1013.57 1014.03 1014.22 1014.12 1013.99 1013.86 1013.45 1013.08 1012.91 1012.97 1012.45 1012.04 1011.85 1011.59 1011.48 1011.46 1011.31 1011.22 1011.22 1011.23 1011.20 1011.00
1011.31 1011.60 1011.48 1011.51 1011.13 1010.87 1010.94 1011.03 1011.02 1011.18 1011.39 1011.63 1012.19 1013.13 1013.46 1013.66 1013.87 1013.84 1013.74 1013.84 1013.92 1014.05 1014.11 1014.02 1013.85 1013.75 1013.76 1013.85 1013.90 1014.02 1014.20 1014.29 1014.31 1014.34 1014.38 1014.59 1014.75 1014.70 1014.42 1014.07 1013.60 1013.22 1012.98 1012.64 1012.45 1012.28 1012.24 1012.24 1012.19 1012.21 1012.13 1011.91 1011.87 1011.92
1011.92 1011.91 1011.86 1012.57 1012.24 1012.19 1012.18 1012.11 1012.02 1012.20 1012.41 1012.57 1013.08 1013.69 1014.02 1014.11 1014.23 1014.11 1013.97 1013.97 1014.08 1014.19 1014.49 1014.59 1014.63 1014.55 1014.61 1014.66 1014.55 1014.60 1014.60 1014.49 1014.60 1014.77 1014.84 1015.16 1015.35 1015.55 1015.20 1014.85 1014.51 1014.19 1013.97 1013.78 1013.19 1012.96 1012.89 1012.91 1012.99 1013.07 1013.12 1012.93 1012.79 1012.71
1012.49 1012.30 1012.74 1013.05 1013.31 1013.18 1013.00 1012.71 1012.66 1012.71 1012.92 1013.27 1013.58 1014.13 1014.39 1014.52 1014.34 1014.09 1014.12 1014.25 1014.52 1014.69 1014.78 1014.89 1014.92 1014.96 1015.04 1015.07 1015.24 1015.24 1015.15 1015.10 1015.01 1015.09 1015.29 1015.59 1015.84 1015.87 1015.72 1015.53 1015.31 1015.06 1014.74 1014.45 1014.19 1014.01 1013.80 1013.83 1013.86 1013.84 1013.69 1013.47 1013.38 1013.40
1012.12 1012.38 1012.92 1013.21 1013.34 1013.23 1013.07 1013.06 1012.99 1013.14 1013.54 1013.98 1013.91 1014.43 1014.73 1014.79 1014.70 1014.63 1014.59 1014.68 1014.74 1014.87 1014.93 1015.12 1015.26 1015.31 1015.33 1015.43 1015.48 1015.55 1015.68 1015.71 1015.58 1015.60 1015.73 1015.91 1015.99 1016.00 1016.02 1015.91 1015.74 1015.52 1015.25 1015.03 1014.94 1014.84 1014.68 1014.55 1014.50 1014.44 1014.35 1014.24 1014.12 1014.00
1012.00 1012.41 1012.80 1013.52 1013.77 1013.45 1013.41 1013.56 1013.76 1014.16 1014.41 1014.61 1014.99 1015.02 1015.04 1014.95 1015.23 1014.96 1014.91 1014.89 1015.04 1015.19 1015.16 1015.34 1015.55 1015.72 1015.71 1015.68 1015.66 1015.66 1015.79 1016.01 1015.97 1015.98 1016.03 1016.10 1016.20 1016.22 1016.20 1016.13 1016.00 1015.86 1015.70 1015.60 1015.52 1015.48 1015.34 1015.19 1015.09 1015.01 1014.92 1014.80 1014.66 1014.52
1012.56 1012.61 1012.66 1013.23 1013.73 1013.71 1013.80 1014.06 1014.62 1015.03 1015.23 1015.51 1015.40 1015.11 1015.07 1015.09 1015.11 1015.00 1014.81 1014.73 1014.79 1014.99 1015.24 1015.52 1015.76 1015.83 1015.92 1015.94 1016.04 1016.16 1016.30 1016.26 1016.00 1016.00 1015.98 1016.06 1016.14 1016.30 1016.41 1016.39 1016.30 1016.20 1016.13 1016.08 1016.00 1015.91 1015.85 1015.77 1015.68 1015.58 1015.47 1015.34 1015.17 1014.95
Wind_Speed
17 17 17 17 18 18 17 17 17 17 18 17 17 17 18 15 15 7 4 7 6 3 6 7 7 8 4 4 7 2 5 4 3 4 4 6 6 7 9 11 7 7 6 12 9 14 27 5 3 22 4 16 1 2
18 18 18 18 18 17 16 17 17 17 18 18 17 18 18 18 17 13 3 4 5 5 4 3 14 19 15 16 7 5 6 5 3 1 4 2 5 3 6 6 8 18 12 10 12 13 7 5 5 6 2 5 10 6
20 20 20 19 19 19 17 18 17 18 18 17 17 19 20 21 19 14 4 4 3 5 7 5 14 9 12 19 13 9 9 10 9 9 8 7 11 2 5 9 12 6 11 8 14 14 19 26 22 13 16 19 19 20
21 21 21 20 20 20 19 18 19 17 18 18 18 19 19 19 17 15 6 5 6 2 4 8 3 8 15 15 17 18 20 9 9 2 9 6 4 4 5 8 8 7 5 7 16 21 20 16 19 23 26 24 23 19
23 23 23 22 21 21 20 19 19 17 17 16 15 15 14 12 13 9 5 6 9 5 2 4 6 8 6 8 16 16 17 18 11 9 8 8 4 6 12 14 13 12 19 15 19 20 19 23 25 28 22 22 23 22
24 23 23 23 22 21 21 20 17 17 16 14 12 11 10 10 9 3 2 3 9 7 4 4 5 7 10 13 15 14 15 11 10 5 7 9 21 8 9 13 14 17 17 19 21 23 22 25 25 24 19 21 20 15
25 25 24 23 23 21 19 17 17 17 17 14 12 10 9 8 3 3 4 2 7 7 3 4 6 3 8 9 7 9 13 8 7 9 11 15 15 10 10 17 22 21 20 21 21 22 24 27 21 19 21 20 22 23
26 26 25 24 23 22 20 19 18 18 15 14 11 8 8 6 4 3 6 7 4 2 3 4 5 5 6 3 3 4 4 5 6 7 4 9 8 7 10 24 28 27 27 26 28 31 31 30 28 27 26 24 25 23
27 27 26 25 24 23 20 19 18 17 14 12 9 3 3 2 3 4 10 15 5 3 3 3 5 4 3 3 3 1 3 4 4 6 10 5 10 12 22 24 27 27 26 26 27 28 27 28 28 28 26 26 24 23
28 28 27 25 24 23 20 19 17 15 12 8 4 3 3 4 3 2 3 2 4 4 4 5 2 4 4 3 3 1 3 5 4 8 4 7 12 23 26 31 29 26 24 23 22 25 27 26 25 28 27 21 21 19
27 27 26 24 22 20 18 18 16 13 6 3 2 3 3 3 3 1 3 3 2 4 4 4 8 7 2 5 4 4 4 3 5 8 9 5 6 20 29 21 24 26 24 24 25 28 29 29 26 24 25 22 19 18
24 25 24 23 21 19 17 16 14 5 4 7 6 2 2 1 1 3 4 2 4 7 3 5 5 6 5 3 4 3 5 2 9 1 2 5 13 25 15 19 21 16 17 22 24 25 26 26 27 26 23 23 22 22
19 22 22 21 20 19 17 15 11 14 11 4 3 2 3 2 4 5 6 4 4 4 5 4 3 4 1 1 3 4 6 7 1 2 6 10 13 10 7 6 8 6 9 11 14 23 24 26 27 24 24 23 24 22
16 17 18 19 18 16 17 14 13 15 5 3 5 6 6 5 7 7 6 4 4 4 3 3 2 4 3 3 4 6 6 3 6 7 9 8 10 8 8 8 9 11 10 12 15 15 15 12 16 22 21 22 21 21
13 15 17 16 16 15 15 12 19 5 3 3 4 6 8 5 3 4 4 1 4 2 2 1 1 3 3 3 4 5 4 6 5 5 4 3 7 7 10 12 13 14 12 13 13 13 15 15 14 16 13 11 13 16
13 12 8 15 16 16 14 10 5 3 3 3 5 3 3 1 3 2 2 3 2 2 1 1 2 3 6 4 2 7 4 4 5 3 4 6 10 10 10 12 12 12 12 12 12 13 13 12 13 16 14 8 8 11
15 4 13 18 16 15 14 5 3 4 6 6 6 3 3 2 6 4 5 5 3 4 3 3 1 11 1 4 4 4 4 4 7 10 10 10 12 12 12 9 10 11 12 13 13 10 10 8 6 8 8 7 5 7
3 6 14 19 15 6 2 2 4 5 7 4 3 4 3 3 3 3 4 3 4 4 4 6 3 2 6 5 5 5 4 7 7 6 5 7 8 9 8 9 9 9 10 9 9 10 10 9 8 7 8 7 7 8
6 7 16 17 9 6 4 2 3 5 8 3 3 2 3 3 4 2 3 3 3 2 3 3 6 4 5 2 3 3 5 5 3 2 3 7 8 9 9 9 10 11 11 11 11 8 8 11 9 7 7 8 9 9
14 14 12 21 9 4 5 4 2 3 4 5 2 2 3 3 1 2 2 3 3 2 5 5 3 1 2 4 5 6 6 4 3 0 3 5 6 8 10 9 9 10 10 11 11 18 11 10 10 10 10 12 12 12
7 1 12 9 2 3 3 4 3 3 2 3 1 3 2 1 2 3 2 3 3 2 2 1 2 5 6 7 4 4 1 2 4 3 3 2 4 6 7 8 8 8 9 9 10 12 15 11 10 10 11 12 12 12
2 6 3 3 3 3 2 1 2 2 2 1 3 3 3 3 3 2 2 2 1 2 2 3 5 7 5 3 2 3 4 6 8 7 8 5 5 6 7 6 7 8 9 9 9 9 9 9 9 10 11 11 15 13
9 3 3 2 4 3 2 1 2 2 3 2 1 3 1 2 3 3 3 2 1 1 4 4 7 2 3 4 5 8 7 6 6 5 4 4 4 4 5 7 7 7 7 8 7 8 8 15 13 11 11 12 11 12
6 4 3 3 2 3 1 2 1 2 1 1 2 1 1 1 2 2 2 2 1 4 4 7 3 2 2 6 6 5 5 4 6 5 3 4 5 6 5 5 6 7 7 6 7 8 8 9 12 9 10 11 12 11
5 3 1 2 1 4 2 2 1 1 3 2 2 1 1 1 2 2 1 1 3 4 5 5 5 5 4 3 4 5 9 6 5 6 6 4 3 3 5 5 7 7 7 7 8 9 8 8 9 10 11 11 12 12
4 2 3 3 0 4 5 4 4 4 2 2 2 1 3 3 3 1 1 1 2 2 3 4 2 3 5 4 3 4 4 4 4 7 6 6 5 4 5 6 7 8 8 6 5 8 9 8 9 12 11 13 18 11
5 1 2 2 1 2 2 2 2 3 2 3 2 2 4 4 2 1 0 1 1 2 2 2 3 3 4 5 5 4 6 7 7 6 4 5 6 6 5 6 7 3 4 7 7 8 8 8 8 8 8 8 9 9
3 3 4 1 3 2 3 1 2 1 2 1 3 3 5 5 2 1 1 2 2 2 2 3 4 4 5 5 5 5 6 4 4 4 5 6 7 6 6 5 6 14 7 6 7 7 7 7 8 8 8 8 8 8
2 1 4 5 4 4 3 2 1 1 0 1 3 2 2 1 1 1 0 2 2 3 3 3 4 3 4 4 5 4 3 3 5 7 7 4 3 5 5 4 5 4 4 5 13 11 10 8 7 7 7 6 6 5
1 1 5 3 3 1 2 1 0 0 2 2 3 2 2 2 2 1 2 3 2 2 3 2 2 2 4 5 5 7 5 5 4 2 3 3 1 2 3 4 4 4 4 4 5 5 12 8 8 6 7 6 5 6
3 3 4 3 2 1 1 1 2 3 3 2 2 3 2 2 2 2 2 1 3 3 4 4 3 2 3 3 4 5 5 3 3 5 4 3 3 3 3 3 3 3 4 5 5 5 5 5 5 6 7 8 9 9
3 3 4 4 1 2 0 0 1 2 2 3 2 1 1 2 1 1 1 2 3 3 5 4 4 3 3 3 3 4 8 2 2 2 4 3 3 3 3 3 3 3 4 4 4 4 5 6 5 6 6 7 7 8
3 3 3 4 2 4 2 3 3 2 3 2 1 1 2 3 4 3 1 1 3 4 5 4 3 3 4 4 4 4 6 3 4 6 8 7 8 6 3 1 2 3 4 4 4 5 6 6 5 6 6 6 7 7
Wind_Direction
277 276 276 279 282 281 279 280 277 274 272 265 259 254 251 250 248 211 230 189 185 241 232 202 205 219 226 207 243 255 341 236 209 218 230 259 245 232 256 230 266 251 187 215 217 230 255 160 259 233 247 271 257 317
271 272 272 275 279 275 275 278 278 273 271 266 260 256 251 251 246 226 215 197 201 216 239 237 239 233 218 224 236 218 227 228 260 189 243 286 282 318 320 290 303 235 237 237 207 233 264 300 240 240 164 239 289 292
269 271 270 271 274 272 269 270 271 277 275 266 256 254 254 255 250 230 199 169 165 238 255 248 240 218 218 224 217 235 244 229 236 234 259 256 255 223 256 257 264 245 328 323 346 292 316 308 308 332 316 302 290 286
268 266 266 267 268 269 270 273 279 283 281 272 258 252 254 258 250 225 201 176 194 193 239 261 182 214 222 221 221 218 241 260 265 177 254 245 248 192 259 258 234 252 320 278 284 290 306 295 314 321 311 315 318 317
266 264 264 261 263 263 265 270 275 279 277 267 257 256 261 264 258 242 199 191 193 193 277 273 292 229 213 208 232 227 234 243 239 236 231 240 223 241 244 260 257 248 256 253 260 262 258 273 284 291 292 299 305 303
260 259 259 259 257 259 260 262 267 271 268 266 264 263 268 276 278 121 282 216 192 187 231 247 281 246 224 209 218 221 223 232 229 226 229 230 230 215 255 255 248 254 248 247 257 260 263 269 271 269 277 281 287 303
259 258 256 254 254 253 256 261 260 262 254 253 255 257 263 264 142 168 202 226 187 164 200 249 266 268 220 207 223 229 218 215 217 237 233 244 253 245 260 264 264 258 252 249 249 260 260 260 259 252 253 273 283 276
260 256 253 250 249 249 249 252 254 254 240 240 246 251 272 280 144 218 222 212 111 230 205 216 260 321 182 189 219 174 175 189 231 240 248 233 260 230 254 253 255 254 256 254 252 251 254 263 267 270 276 277 271 265
258 254 250 245 241 240 242 242 248 238 230 232 236 238 56 126 198 237 189 192 168 186 260 206 184 221 157 219 191 129 146 196 229 217 228 193 236 227 232 246 253 248 244 253 253 253 253 252 260 263 261 263 263 263
254 247 241 237 233 233 234 234 236 229 221 217 90 88 227 227 289 79 79 162 202 193 217 245 212 250 167 190 230 158 209 222 228 225 166 213 237 241 243 246 255 259 256 258 261 261 256 255 252 257 258 252 248 253
248 238 231 226 223 224 229 226 234 216 119 99 131 201 233 311 78 88 200 220 212 210 210 232 202 233 262 213 200 209 217 242 241 250 189 219 240 244 242 252 252 256 260 258 248 252 257 258 257 254 260 252 254 253
234 225 218 213 212 213 218 223 228 166 162 175 159 113 58 65 187 185 200 236 204 228 233 204 210 197 257 166 144 250 199 174 241 177 191 250 245 257 270 263 266 264 257 261 263 262 260 256 254 255 255 259 261 261
217 209 203 202 204 208 214 216 196 145 106 60 62 159 163 184 222 226 210 211 213 217 214 190 225 202 258 167 214 174 221 229 44 238 239 228 264 271 301 346 338 338 327 327 302 273 276 275 265 255 255 255 257 258
197 191 195 198 195 203 211 201 179 127 97 144 191 196 199 208 229 199 201 181 219 196 185 183 230 201 192 218 237 232 212 101 232 235 245 277 319 345 329 316 309 311 300 290 286 294 302 312 288 275 263 263 263 262
189 190 191 194 191 195 200 195 159 102 131 183 165 220 217 228 240 236 202 283 237 202 156 338 274 137 224 264 242 223 235 225 205 257 260 325 324 322 321 320 318 313 314 305 300 288 283 288 284 281 284 287 272 259
185 182 188 188 192 188 182 169 94 93 105 181 220 238 232 92 263 279 216 248 216 220 47 61 200 224 238 226 261 236 274 249 245 255 294 325 319 322 317 319 310 303 305 304 306 301 297 297 296 292 291 292 295 282
169 179 182 177 176 177 165 100 94 162 198 200 238 194 172 206 222 217 176 225 164 117 215 107 160 224 302 237 249 214 230 291 325 316 320 324 324 327 320 314 319 322 319 319 320 325 331 329 337 3 9 355 353 3
166 169 171 180 173 102 46 99 143 187 223 223 213 210 205 199 194 238 205 171 140 161 119 211 177 196 224 222 258 269 326 331 321 334 344 340 332 333 331 334 338 340 337 341 347 350 358 2 7 2 0 0 17 25
163 170 185 158 125 111 130 191 178 220 215 183 230 240 200 225 226 230 203 184 193 148 149 212 236 227 232 273 297 332 311 304 296 308 353 347 340 348 355 358 2 359 0 360 13 10 10 17 15 12 24 34 40 30
175 187 177 149 110 117 164 189 188 197 200 210 185 206 207 209 183 191 173 175 157 189 219 223 235 279 280 295 292 287 282 273 253 196 30 359 348 1 13 10 10 7 16 12 24 30 18 21 20 23 33 48 56 49
110 14 174 114 123 92 138 155 183 208 205 212 204 185 224 168 207 201 175 159 184 193 273 279 272 292 295 278 276 272 300 81 68 73 58 351 352 15 17 13 15 20 25 19 25 21 25 20 19 21 31 40 45 46
116 110 96 89 133 152 109 164 170 155 188 229 175 199 210 196 186 140 99 67 66 19 328 307 292 296 297 355 2 49 73 78 69 69 52 38 31 20 18 7 16 26 26 21 20 24 24 28 26 31 38 35 43 51
108 82 74 95 78 66 166 85 132 190 187 225 241 231 250 123 101 135 94 80 78 337 303 287 284 348 28 32 62 58 49 74 79 69 57 53 46 26 24 18 20 30 38 30 28 34 36 37 33 40 42 42 44 48
46 53 87 117 108 159 141 170 154 144 76 203 210 172 261 95 94 69 83 76 345 326 331 334 347 64 41 41 46 43 44 59 84 75 33 54 56 40 35 31 26 24 19 25 34 37 30 36 43 45 47 53 49 48
115 31 108 133 7 111 145 155 148 130 208 217 157 217 261 60 83 71 89 22 336 350 343 347 33 40 59 53 50 51 35 35 51 58 16 25 30 39 45 41 38 25 8 30 36 41 41 40 38 37 45 48 49 51
88 309 127 182 157 136 180 151 177 180 165 153 188 101 49 76 69 132 94 316 328 344 330 345 0 76 60 34 59 47 29 21 57 64 26 11 13 39 58 50 36 22 8 16 28 44 45 43 48 48 45 41 46 46
112 158 273 226 169 130 69 52 83 112 157 165 124 60 72 83 192 147 59 5 359 328 322 345 41 62 86 88 72 62 68 62 66 72 49 32 28 17 25 50 46 356 352 31 34 38 46 45 48 50 54 48 40 44
154 151 133 339 62 352 115 90 82 93 108 34 69 69 140 169 145 172 169 118 85 52 32 31 38 60 73 68 79 91 88 77 88 102 91 56 36 21 14 14 30 37 19 49 46 47 49 45 41 40 40 44 38 31
64 351 83 45 43 40 29 22 105 52 17 85 119 143 133 69 342 302 94 120 97 92 83 83 59 45 68 63 66 65 60 82 108 90 80 60 25 8 352 5 14 13 16 19 47 61 65 66 59 47 36 37 32 19
223 118 85 63 77 100 267 230 82 71 68 131 113 98 65 19 338 2 74 79 96 113 113 102 79 81 95 98 90 71 48 47 49 83 112 93 63 348 4 8 10 10 12 34 39 36 54 46 43 36 35 32 28 25
158 100 84 80 101 22 237 301 42 64 58 46 48 90 129 160 15 27 49 74 113 114 114 106 87 69 105 100 103 105 93 38 69 99 100 94 81 55 35 26 17 17 27 38 38 37 34 38 34 30 27 23 13 16
50 95 117 103 166 266 342 87 116 97 32 57 357 67 38 61 113 280 318 130 120 130 147 128 128 121 112 97 70 71 103 96 88 99 103 96 85 71 57 42 35 37 45 45 43 42 34 31 25 20 12 6 359 356
60 53 68 101 100 176 214 98 37 64 32 60 331 183 177 151 189 218 276 239 171 151 139 124 116 112 109 98 92 86 61 13 78 103 115 127 119 114 107 49 47 55 56 49 41 32 30 22 14 7 0 353 345 338